Change the Weather History Date:

Monday, October 1, 2012

  Actual Average Record
Temperature  
Mean Temperature 72 °F 65 °F  
Max Temperature 78 °F 77 °F 86 °F (2014)
Min Temperature 66 °F 54 °F 42 °F (2001)
Degree Days  
Heating Degree Days 0 2  
Month to date heating degree days 2  
Since 1 July heating degree days 20  
Cooling Degree Days 7 3  
Month to date cooling degree days 3  
Year to date cooling degree days 1475  
Growing Degree Days 22 (Base 50)    
Moisture  
Dew Point 69 °F    
Average Humidity 95    
Maximum Humidity 100    
Minimum Humidity 78    
Precipitation  
Precipitation 0.79 in 0.15 in 3.65 in (1958)
Month to date precipitation 0.15  
Year to date precipitation 38.36  
Sea Level Pressure  
Sea Level Pressure 29.68 in    
Wind  
Wind Speed 6 mph (SE)    
Max Wind Speed 15 mph    
Max Gust Speed 23 mph    
Visibility 8 miles    
Events Rain    
T = Trace of Precipitation, MM = Missing Value Source: NWS Daily Summary

Daily Weather History Graph

Daily Weather History Graph

Search for Another Location

Airport or City:

Trip Planner

Search our weather history database for the weather conditions in past years. The results will help you decide how hot, cold, wet, or windy it might be!

Date:

Astronomy

Oct. 01, 2012 Rise Set
Actual Time 7:34 AM EDT 7:22 PM EDT
Civil Twilight 7:09 AM EDT 7:47 PM EDT
Nautical Twilight 6:40 AM EDT 8:16 PM EDT
Astronomical Twilight 6:11 AM EDT 8:46 PM EDT
Moon 8:06 PM EDT (10/1) 8:56 AM EDT (10/1)
Length of Visible Light 12h 38m
Length of Day
11h 48m
Full, 98% of the Moon is Illuminated
Oct 1
Full
Oct 8
Last Quarter
Oct 15
New
Oct 21
First Quarter
Oct 29
Full

Hourly Weather History & Observations

Time (EDT) Temp. Dew Point Humidity Pressure Visibility Wind Dir Wind Speed Gust Speed Precip Events Conditions
12:47 AM 66.2 °F 66.2 °F 100% 29.78 in 10.0 mi ESE 5.8 mph - 0.04 in Rain Light Rain
12:53 AM 66.9 °F 66.0 °F 97% 29.75 in 10.0 mi East 3.5 mph - 0.04 in Rain Light Rain
1:07 AM 66.2 °F 66.2 °F 100% 29.77 in 10.0 mi ESE 4.6 mph - 0.01 in Rain Light Rain
1:53 AM 66.9 °F 66.0 °F 97% 29.73 in 10.0 mi ESE 3.5 mph - 0.02 in   Mostly Cloudy
2:13 AM 66.2 °F 66.2 °F 100% 29.76 in 10.0 mi ESE 3.5 mph - N/A   Overcast
2:24 AM 66.2 °F 66.2 °F 100% 29.76 in 7.0 mi ESE 3.5 mph - 0.01 in Rain Light Rain
2:45 AM 66.2 °F 66.2 °F 100% 29.75 in 7.0 mi East 3.5 mph - 0.01 in Rain Light Rain
2:53 AM 66.9 °F 66.9 °F 100% 29.72 in 9.0 mi Calm Calm - 0.01 in   Overcast
3:17 AM 66.2 °F 66.2 °F 100% 29.74 in 10.0 mi East 3.5 mph - N/A   Overcast
3:28 AM 66.2 °F 66.2 °F 100% 29.74 in 10.0 mi ESE 3.5 mph - 0.01 in Rain Light Rain
3:44 AM 66.2 °F 66.2 °F 100% 29.73 in 8.0 mi East 3.5 mph - 0.03 in Rain Light Rain
3:53 AM 66.9 °F 66.9 °F 100% 29.70 in 8.0 mi ESE 3.5 mph - 0.04 in Rain Light Rain
4:09 AM 66.2 °F 66.2 °F 100% 29.71 in 10.0 mi ESE 4.6 mph - 0.01 in Rain Light Rain
4:17 AM 66.2 °F 66.2 °F 100% 29.72 in 9.0 mi ESE 5.8 mph - 0.01 in Rain Light Rain
4:33 AM 66.2 °F 66.2 °F 100% 29.72 in 6.0 mi ESE 6.9 mph - 0.03 in Rain Light Rain
4:41 AM 66.2 °F 66.2 °F 100% 29.71 in 6.0 mi ESE 6.9 mph - 0.03 in Rain Light Rain
4:53 AM 66.9 °F 66.0 °F 97% 29.68 in 10.0 mi ESE 6.9 mph - 0.03 in   Overcast
5:09 AM 66.2 °F 66.2 °F 100% 29.70 in 10.0 mi Variable 5.8 mph - N/A   Overcast
5:53 AM 66.9 °F 66.0 °F 97% 29.68 in 10.0 mi East 5.8 mph - N/A   Overcast
6:53 AM 68.0 °F 66.9 °F 96% 29.66 in 9.0 mi Variable 4.6 mph - 0.04 in Rain Light Rain
7:53 AM 68.0 °F 68.0 °F 100% 29.67 in 8.0 mi East 4.6 mph - 0.12 in Rain Light Rain
8:53 AM 69.1 °F 69.1 °F 100% 29.67 in 7.0 mi ESE 8.1 mph - 0.08 in Rain Light Rain
9:53 AM 70.0 °F 69.1 °F 97% 29.65 in 1.8 mi East 6.9 mph - 0.20 in Rain Heavy Rain
10:01 AM 69.8 °F 69.8 °F 100% 29.69 in 3.0 mi ESE 8.1 mph - 0.01 in Rain Light Rain
10:22 AM 71.6 °F 69.8 °F 94% 29.70 in 9.0 mi ESE 8.1 mph - 0.01 in Rain Light Rain
10:25 AM 71.6 °F 69.8 °F 94% 29.70 in 7.0 mi ESE 9.2 mph - 0.01 in Rain Light Rain
10:34 AM 71.6 °F 69.8 °F 94% 29.69 in 2.5 mi ESE 8.1 mph - 0.04 in Rain Rain
10:44 AM 71.6 °F 71.6 °F 100% 29.70 in 6.0 mi SE 8.1 mph - 0.05 in Rain Light Rain
10:53 AM 72.0 °F 71.1 °F 97% 29.67 in 10.0 mi ESE 8.1 mph - 0.05 in   Overcast
11:12 AM 71.6 °F 71.6 °F 100% 29.69 in 10.0 mi Variable 4.6 mph - 0.00 in Rain Light Rain
11:53 AM 73.0 °F 71.1 °F 93% 29.64 in 4.0 mi ESE 8.1 mph - 0.02 in Rain Light Rain
12:01 PM 73.4 °F 71.6 °F 94% 29.68 in 4.0 mi SE 10.4 mph 16.1 mph 0.00 in Rain Light Rain
12:08 PM 73.4 °F 71.6 °F 94% 29.68 in 7.0 mi SE 10.4 mph 16.1 mph 0.01 in Rain Light Rain
12:27 PM 71.6 °F 71.6 °F 100% 29.68 in 2.0 mi SE 6.9 mph - 0.09 in Rain Heavy Rain
12:40 PM 73.4 °F 71.6 °F 94% 29.68 in 4.0 mi SE 6.9 mph - 0.12 in Rain Light Rain
12:53 PM 73.0 °F 72.0 °F 96% 29.64 in 5.0 mi ESE 8.1 mph - 0.12 in Rain Light Rain
1:21 PM 73.4 °F 71.6 °F 94% 29.67 in 10.0 mi SSE 10.4 mph 17.3 mph 0.00 in   Overcast
1:39 PM 75.2 °F 71.6 °F 89% 29.66 in 10.0 mi SE 8.1 mph 19.6 mph 0.00 in   Overcast
1:53 PM 75.9 °F 71.1 °F 85% 29.63 in 10.0 mi Variable 6.9 mph 23.0 mph 0.00 in   Mostly Cloudy
2:10 PM 73.4 °F 69.8 °F 88% 29.65 in 10.0 mi SE 9.2 mph 20.7 mph N/A   Overcast
2:53 PM 73.0 °F 71.1 °F 93% 29.61 in 8.0 mi SE 8.1 mph - 0.01 in Rain Light Rain
3:53 PM 75.9 °F 71.1 °F 85% 29.60 in 10.0 mi SSE 10.4 mph 23.0 mph 0.00 in   Overcast
4:33 PM 78.8 °F 71.6 °F 78% 29.63 in 10.0 mi South 9.2 mph 21.9 mph N/A   Mostly Cloudy
4:45 PM 77.0 °F 69.8 °F 78% 29.63 in 10.0 mi SSE 11.5 mph 19.6 mph N/A   Overcast
4:53 PM 75.9 °F 70.0 °F 82% 29.60 in 10.0 mi South 15.0 mph 21.9 mph N/A   Overcast
5:39 PM 75.2 °F 71.6 °F 89% 29.63 in 10.0 mi Variable 6.9 mph - 0.01 in   Overcast
6:53 PM 73.0 °F 72.0 °F 96% 29.60 in 10.0 mi SE 4.6 mph - 0.00 in   Overcast
7:05 PM 73.4 °F 71.6 °F 94% 29.63 in 3.0 mi SE 8.1 mph - 0.01 in Rain Light Rain
7:32 PM 73.4 °F 71.6 °F 94% 29.63 in 10.0 mi SE 6.9 mph - 0.01 in   Overcast
7:53 PM 73.0 °F 71.1 °F 93% 29.60 in 10.0 mi SE 3.5 mph - 0.01 in   Overcast
8:53 PM 73.0 °F 71.1 °F 93% 29.63 in 10.0 mi SSE 6.9 mph - 0.00 in   Overcast
9:34 PM 73.4 °F 71.6 °F 94% 29.67 in 10.0 mi SSE 4.6 mph - N/A   Overcast
9:53 PM 72.0 °F 71.1 °F 97% 29.64 in 10.0 mi SSE 9.2 mph - N/A   Mostly Cloudy
11:53 PM 71.1 °F 70.0 °F 96% 29.65 in 10.0 mi Calm Calm - N/A   Overcast